Weather in Novonikolskoye

Russia / Tomsk District     59°45′51″N   79°12′41″E
temp.,
°C
wind,
m/s
gust,
m/s
humid.,
%
clouds,
%
prec.,
mm/h
press.,
hPa
HPBL,
m
7 may, fri
fri701:00+9w477938 2.4 1001125
04:00+7w58825 0.1 1003168
07:00+7wsw510835 0.1 1004462
10:00+10w795984 0.1 10051333
13:00+10w9115299 0.8 10061785
16:00+10wnw111248100 0.3 10081894
19:00+9w10144680 0.3 10102110
22:00+7w5961100 0.0 1010241
8 may, sat
sat801:00+6wsw476939 0.0 1011114
04:00+4wnw48765 0.0 1011155
07:00+4w7146879 0.0 1012743
10:00+6wnw81155100 0.0 10131148
13:00+8nw10135196 0.0 10141614
16:00+8nnw10125482 0.0 10161487
19:00+7nnw8115899 0.0 10181349
22:00+5nnw686393 0.0 10191138
9 may, sun
sun901:00+2nnw46765 0.0 1020153
04:00+1n33825 0.0 102156
07:00+2nnw127714 0.0 102381
10:00+6nnw22615 0.0 1023550
13:00+9nw114729 0.0 1023986
16:00+11nnw223932 0.0 10221212
19:00+13nw3339100 0.0 10221436
22:00+11nnw4551100 0.0 1022220
10 may, mon
mon1001:00+8nne7968100 0.0 1023352
04:00+6ne577394 0.0 1023270
07:00+5ne58745 0.0 1024329
10:00+9ne555711 0.0 1024898
13:00+10ne4449100 0.0 10231541
16:00+12n454077 0.0 10221865
19:00+12ne554084 0.0 10221772
22:00+8ene58576 0.0 1023280
11 may, tue
tue1101:00+7e476690 0.0 1023272
04:00+5ne2375100 0.0 102339
07:00+7ene227235 0.0 1023138
10:00+10se12545 0.0 1023804
13:00+13sse34425 0.0 10221564
16:00+15sse34355 0.0 10212032
19:00+16ssw45336 0.0 10202159
22:00+13ssw3446100 0.0 102041